Weather History for KBMG - May, 2013

Change the Weather History Date:

Thursday, May 30, 2013

  Actual Average Record
Temperature  
Mean Temperature 77 °F 67 °F  
Max Temperature 85 °F 78 °F 91 °F (2011)
Min Temperature 68 °F 56 °F 46 °F (2003)
Degree Days  
Heating Degree Days 0 2  
Month to date heating degree days 105 135  
Since 1 July heating degree days 5293 5249  
Cooling Degree Days 12 4  
Month to date cooling degree days 102 62  
Year to date cooling degree days 114 81  
Growing Degree Days 26 (Base 50)    
Moisture  
Dew Point 65 °F    
Average Humidity 70    
Maximum Humidity 84    
Minimum Humidity 55    
Precipitation  
Precipitation 0.07 in 0.18 in 1.52 in (2004)
Month to date precipitation 2.85 5.05  
Year to date precipitation 18.25 19.70  
Sea Level Pressure  
Sea Level Pressure 30.00 in    
Wind  
Wind Speed 10 mph (South)    
Max Wind Speed 23 mph    
Max Gust Speed 30 mph    
Visibility 10 miles    
Events Rain    
T = Trace of Precipitation, MM = Missing Value Source: NWS Daily Summary

Daily Weather History Graph

Daily Weather History Graph

Search for Another Location

Airport or City:

Trip Planner

Search our weather history database for the weather conditions in past years. The results will help you decide how hot, cold, wet, or windy it might be!

Date:

Astronomy

May. 30, 2013 Rise Set
Actual Time 6:23 AM EDT 9:05 PM EDT
Civil Twilight 5:51 AM EDT 9:36 PM EDT
Nautical Twilight 5:12 AM EDT 10:16 PM EDT
Astronomical Twilight 4:27 AM EDT 11:00 PM EDT
Moon 1:07 AM EDT (5/30) 12:29 PM EDT (5/30)
Length of Visible Light 15h 45m
Length of Day
14h 42m
Waning Gibbous, 62% of the Moon is Illuminated
May 30
Waning Gibbous
May 31
Last Quarter
Jun 8
New
Jun 16
First Quarter
Jun 23
Full

Hourly Weather History & Observations

Time (EDT) Temp. Heat Index Dew Point Humidity Pressure Visibility Wind Dir Wind Speed Gust Speed Precip Events Conditions
12:53 AM 72.0 °F - 64.0 °F 76% 30.01 in 10.0 mi SSE 3.5 mph - N/A   Clear
1:53 AM 71.1 °F - 64.9 °F 81% 30.01 in 10.0 mi SSE 4.6 mph - N/A   Clear
2:53 AM 70.0 °F - 64.9 °F 84% 30.01 in 10.0 mi SSE 4.6 mph - N/A   Clear
3:53 AM 69.1 °F - 64.0 °F 84% 30.02 in 10.0 mi SSE 4.6 mph - N/A   Mostly Cloudy
4:53 AM 69.1 °F - 64.0 °F 84% 30.01 in 10.0 mi SSE 5.8 mph - N/A   Clear
5:53 AM 68.0 °F - 63.0 °F 84% 30.02 in 10.0 mi SSE 4.6 mph - N/A   Clear
6:53 AM 69.1 °F - 64.0 °F 84% 30.04 in 10.0 mi SE 5.8 mph - N/A   Overcast
7:53 AM 69.1 °F - 64.9 °F 87% 30.05 in 10.0 mi SSE 6.9 mph - 0.07 in Rain Light Rain
8:53 AM 73.0 °F - 64.9 °F 76% 30.05 in 10.0 mi South 9.2 mph - 0.00 in   Clear
9:53 AM 77.0 °F - 66.0 °F 69% 30.05 in 10.0 mi South 11.5 mph - N/A   Clear
10:53 AM 78.1 °F - 64.9 °F 64% 30.05 in 10.0 mi SSW 12.7 mph 21.9 mph N/A   Clear
11:53 AM 82.0 °F 84.5 °F 66.9 °F 60% 30.03 in 10.0 mi South 19.6 mph 28.8 mph N/A   Partly Cloudy
12:53 PM 82.9 °F 85.0 °F 66.0 °F 56% 30.03 in 10.0 mi SSW 10.4 mph 18.4 mph N/A   Mostly Cloudy
1:53 PM 84.0 °F 86.3 °F 66.0 °F 55% 30.02 in 10.0 mi South 18.4 mph 24.2 mph N/A   Mostly Cloudy
2:53 PM 82.9 °F 85.0 °F 66.0 °F 56% 30.00 in 10.0 mi South 16.1 mph 26.5 mph N/A   Partly Cloudy
3:53 PM 82.0 °F 84.1 °F 66.0 °F 58% 29.99 in 10.0 mi South 15.0 mph 23.0 mph N/A   Partly Cloudy
4:53 PM 84.0 °F 86.3 °F 66.0 °F 55% 29.96 in 10.0 mi South 12.7 mph 23.0 mph N/A   Partly Cloudy
5:53 PM 82.0 °F 84.5 °F 66.9 °F 60% 29.95 in 10.0 mi South 11.5 mph 19.6 mph N/A   Scattered Clouds
6:53 PM 82.9 °F 85.4 °F 66.9 °F 58% 29.95 in 10.0 mi South 11.5 mph 19.6 mph N/A   Clear
7:53 PM 80.1 °F 82.3 °F 66.9 °F 64% 29.94 in 10.0 mi SSE 12.7 mph 20.7 mph N/A   Clear
8:53 PM 79.0 °F - 66.0 °F 64% 29.95 in 10.0 mi South 11.5 mph 18.4 mph N/A   Partly Cloudy
9:53 PM 78.1 °F - 66.0 °F 66% 29.95 in 10.0 mi South 8.1 mph - 0.00 in   Scattered Clouds
10:53 PM 77.0 °F - 66.9 °F 71% 29.97 in 10.0 mi South 9.2 mph - N/A   Clear
11:53 PM 75.9 °F - 66.0 °F 71% 29.97 in 10.0 mi South 11.5 mph - N/A   Clear